Location: North Evanston
(42.0634°N, 87.6976°W)
Time: 22:55:34
(UTC+00:00)

Transit 2A - Pass Details

Date: 17 May 2026
Orbit: 595 x 949 km, 66.7° (Epoch: 5 June)

Event Time Altitude Azimuth Distance (km) Brightness Sun altitude
Rises 06:09:55 0° 328° (NNW) 3,150 9.9 -28.4°
Reaches altitude 10° 06:12:23 10° 326° (NNW) 2,170 8.9 -28.3°
Enters shadow 06:15:50 44° 316° (NW) 918 6.6 -28.2°
Maximum altitude 06:17:15 74° 243° (WSW) 682 - -28.2°
Drops below altitude 10° 06:21:41 10° 158° (SSE) 1,983 - -28.1°
Sets 06:23:52 0° 156° (SSE) 2,857 - -28.0°
